Location: Dennis Manor
(64.8292°N, 147.5397°W)
Time: 16:55:19
(UTC+00:00)

Envisat - Pass Details

Date: 28 October 2020
Orbit: 764 x 766 km, 98.1° (Epoch: 25 November)

Event Time Altitude Azimuth Distance (km) Brightness Sun altitude
Rises 14:37:50 0° 18° (NNE) 3,250 6.6 -18.1°
Reaches altitude 10° 14:40:41 10° 34° (NE) 2,319 6.0 -17.8°
Maximum altitude 14:44:36 22° 84° (E) 1,643 5.7 -17.3°
Drops below altitude 10° 14:48:30 10° 135° (SE) 2,307 6.0 -16.9°
Sets 14:51:19 0° 151° (SSE) 3,228 6.6 -16.6°
